This is the latest recevied weather packets stored in our database for station/object N1UNH. If no packets are shown the sender has not sent any weather packets the latest 10 day(s).
| Time | Temp. | Humidity | Pressure | Rain* | Wind** | Luminosity | Snow |
|---|---|---|---|---|---|---|---|
| 1778124377 | 10.56° C | 94% | 1012.3 hPa | 0 mm | - | 0 W/m² | - |
| 1778124073 | 10.56° C | 94% | 1012.4 hPa | 0 mm | - | 0 W/m² | - |
| 1778123770 | 10.56° C | 94% | 1012.4 hPa | 0 mm | - | 0 W/m² | - |
| 1778123466 | 10.56° C | 94% | 1012.5 hPa | 1.78 mm | - | 0 W/m² | - |
| 1778123163 | 10.56° C | 93% | 1012.4 hPa | 3.05 mm | - | 0 W/m² | - |
| 1778122861 | 10.56° C | 93% | 1012.4 hPa | 4.32 mm | - | 0 W/m² | - |
| 1778122558 | 11.11° C | 92% | 1012.3 hPa | 4.83 mm | - | 0 W/m² | - |
| 1778122255 | 11.11° C | 92% | 1012.3 hPa | 1.78 mm | - | 0 W/m² | - |
| 1778121953 | 11.11° C | 92% | 1012.1 hPa | 0 mm | - | 0 W/m² | - |
| 1778121650 | 11.67° C | 93% | 1012 hPa | 0 mm | - | 0 W/m² | - |
| 1778121345 | 11.67° C | 93% | 1012.2 hPa | 1.27 mm | - | 0 W/m² | - |
| 1778121043 | 11.67° C | 93% | 1012 hPa | 1.27 mm | - | 0 W/m² | - |
| 1778120740 | 12.22° C | 93% | 1012 hPa | 0 mm | - | 0 W/m² | - |
| 1778120435 | 12.22° C | 93% | 1011.8 hPa | 0 mm | - | 0 W/m² | - |
| 1778120131 | 12.22° C | 94% | 1011.5 hPa | 0 mm | - | 0 W/m² | - |
| 1778119828 | 12.22° C | 94% | 1011.5 hPa | 0 mm | - | 0 W/m² | - |
| 1778119525 | 12.78° C | 94% | 1011.6 hPa | 0 mm | - | 0 W/m² | - |
| 1778119222 | 12.78° C | 94% | 1011.4 hPa | 0 mm | - | 0 W/m² | - |
| 1778118921 | 12.78° C | 94% | 1011.3 hPa | 1.78 mm | - | 0 W/m² | - |
| 1778118618 | 12.78° C | 94% | 1011.2 hPa | 3.05 mm | - | 0 W/m² | - |
| 1778118314 | 12.78° C | 94% | 1011.2 hPa | 3.05 mm | - | 0 W/m² | - |
| 1778118010 | 12.78° C | 94% | 1010.9 hPa | 4.83 mm | - | 0 W/m² | - |
| 1778117707 | 13.33° C | 94% | 1011.1 hPa | 6.1 mm | - | 0 W/m² | - |
| 1778117404 | 13.33° C | 94% | 1011.3 hPa | 3.05 mm | - | 0 W/m² | - |
| 1778117101 | 13.33° C | 94% | 1011.3 hPa | 1.78 mm | - | 0 W/m² | - |
* Rain latest hour (hover to see other rain measurements)
** Current wind speed in m/s (hover to see current wind gust speed)